{"data":{"norad_id":62307,"epoch":"2026-09-21T17:36:33.785568Z","epoch_age_seconds":70949,"freshness":"FRESH","line1":"1 62307U 24239G   26264.73372437  .00021853  00000+0  65639-3 0  9994","line2":"2 62307  53.1595 348.0868 0001098  96.5979 263.5149 15.34382580 99612","mean_motion":15.3438258,"eccentricity":0.0001098,"inclination_deg":53.1595,"raan_deg":348.0868,"arg_perigee_deg":96.5979,"mean_anomaly_deg":263.5149,"bstar":0.00065639,"rev_number":9961,"period_min":93.848823544386,"perigee_km":462.00388666463,"apogee_km":463.50614655147,"semimajor_km":6840.8920166081,"source":"CELESTRAK","updated_at":"2026-09-22T09:00:49.571847Z"}}